USA 568

operational
NORAD ID: 66551 Int'l Des: 2024-134 Owner: SFSSC Country: US
NOTLE

About USA 568

Description loading...

Live Position

Loading 3D Globe...

Upcoming Passes

Altitude History

Altitude vs Time

uPlot chart will show altitude changes over time

Two-Line Element Set

1 66551U 25271AE 25336.66670139 -.01709685 00000-0 -74303-2 0 9994
2 66551 53.1571 236.7807 0000717 110.7411 313.9012 15.87051116 2624
Epoch: Dec 2, 2025 • Age: 274 hours

Current Status

Altitude 117.6 km
Velocity 7.83 km/s
Sub-Earth Point -43.35°S, 27.16°E
Launch Date Jul 30, 2024
Age 1.3 years
Type military

Technical Details

Classification Payload
Mass 100.00 kg
Dry Mass 100.00 kg
Total Mass 100.00 kg
Length 1.00 m
Diameter 1.00 m
Span 1.00 m
Shape Box
Manufacturer UNKUS
Bus Type Unknown
Phase Status In Orbit
Owner/State SFSSC/US

Large Constellations

Loading constellations...